Weather History for Skagway, AK

Change the Weather History Date:

Wednesday, November 2, 2011

  Actual Average Record
Temperature  
Mean Temperature 34 °F -  
Max Temperature 41 °F 39 °F 53 °F (1969)
Min Temperature 27 °F 31 °F 16 °F (1984)
Degree Days  
Heating Degree Days 31    
Moisture  
Dew Point 18 °F    
Average Humidity 57    
Maximum Humidity 93    
Minimum Humidity 34    
Precipitation  
Precipitation 0.00 in - - ()
Sea Level Pressure  
Sea Level Pressure 29.82 in    
Wind  
Wind Speed 10 mph (NNE)    
Max Wind Speed 21 mph    
Max Gust Speed 30 mph    
Visibility 10 miles    
Events Rain    
Averages and records for this station are not official NWS values.
T = Trace of Precipitation, MM = Missing Value Source: NWS Daily Summary

Daily Weather History Graph

Daily Weather History Graph

Search for Another Location

Airport:

Trip Planner

Search our weather history database for the weather conditions in past years. The results will help you decide how hot, cold, wet, or windy it might be!

Date:

Astronomy

Nov. 02, 2011 Rise Set
Actual Time 8:23 AM AKDT 5:05 PM AKDT
Civil Twilight 7:38 AM AKDT 5:49 PM AKDT
Nautical Twilight 6:50 AM AKDT 6:38 PM AKDT
Astronomical Twilight 6:02 AM AKDT 7:25 PM AKDT
Moon 2:42 PM AKDT (11/2) No Moon Set
Length of Visible Light 10h 10m
Length of Day
8h 41m
First Quarter, 51% of the Moon is Illuminated
Nov 2
First Quarter
Nov 10
Full
Nov 18
Last Quarter
Nov 24
New
Dec 2
First Quarter

Hourly Weather History & Observations

Time (AKDT) Temp. Windchill Dew Point Humidity Pressure Visibility Wind Dir Wind Speed Gust Speed Precip Events Conditions
12:53 AM 41.0 °F 32.5 °F 33.1 °F 73% 29.53 in 10.0 mi SSW 17.3 mph 23.0 mph N/A   Overcast
1:53 AM 41.0 °F 37.1 °F 33.1 °F 73% 29.55 in 10.0 mi South 5.8 mph - N/A   Clear
2:53 AM 36.0 °F 30.3 °F 33.1 °F 89% 29.57 in 10.0 mi NE 6.9 mph - N/A   Mostly Cloudy
3:10 AM 35.6 °F 32.8 °F 33.8 °F 93% 29.58 in 10.0 mi ENE 3.5 mph - N/A   Mostly Cloudy
3:53 AM 36.0 °F - 33.1 °F 89% 29.59 in 10.0 mi Calm Calm - N/A   Overcast
4:03 AM 35.6 °F 32.8 °F 33.8 °F 93% 29.58 in 10.0 mi NE 3.5 mph - N/A   Overcast
4:53 AM 37.0 °F - 34.0 °F 89% 29.60 in 10.0 mi Calm Calm - 0.00 in Rain Light Rain
5:14 AM 37.4 °F 34.9 °F 33.8 °F 87% 29.59 in 10.0 mi Variable 3.5 mph - 0.00 in   Overcast
5:53 AM 37.0 °F - 33.1 °F 86% 29.60 in 10.0 mi Calm Calm - 0.00 in   Overcast
6:53 AM 36.0 °F - 34.0 °F 93% 29.61 in 10.0 mi Calm Calm - N/A   Overcast
7:53 AM 37.9 °F 31.5 °F 26.1 °F 62% 29.64 in 10.0 mi North 9.2 mph - N/A   Overcast
8:53 AM 37.0 °F 31.0 °F 19.9 °F 50% 29.69 in 10.0 mi North 8.1 mph 18.4 mph N/A   Overcast
9:53 AM 35.1 °F 26.4 °F 18.0 °F 50% 29.74 in 10.0 mi NNE 12.7 mph 24.2 mph N/A   Overcast
10:53 AM 34.0 °F 22.7 °F 15.1 °F 46% 29.78 in 10.0 mi NNE 19.6 mph 28.8 mph N/A   Overcast
11:53 AM 33.1 °F 23.0 °F 12.9 °F 43% 29.84 in 10.0 mi NNE 15.0 mph 26.5 mph N/A   Overcast
12:53 PM 32.0 °F 21.6 °F 12.0 °F 44% 29.89 in 10.0 mi NNE 15.0 mph 25.3 mph N/A   Overcast
1:53 PM 32.0 °F 20.8 °F 9.0 °F 38% 29.91 in 10.0 mi NNE 17.3 mph 29.9 mph N/A   Overcast
2:53 PM 30.9 °F 18.4 °F 8.1 °F 38% 29.94 in 10.0 mi NNE 20.7 mph 29.9 mph N/A   Partly Cloudy
3:53 PM 28.9 °F 16.9 °F 3.9 °F 35% 29.98 in 10.0 mi NNE 17.3 mph 26.5 mph N/A   Clear
4:53 PM 28.0 °F 16.1 °F 3.0 °F 34% 30.01 in 10.0 mi NNE 16.1 mph 29.9 mph N/A   Clear
5:53 PM 27.0 °F 14.3 °F 1.9 °F 34% 30.05 in 10.0 mi NNE 17.3 mph 24.2 mph N/A   Clear
6:53 PM 27.0 °F 15.6 °F 3.0 °F 36% 30.08 in 10.0 mi NNE 13.8 mph 23.0 mph N/A   Clear
7:53 PM 27.0 °F 16.1 °F 3.0 °F 36% 30.10 in 10.0 mi NNE 12.7 mph 19.6 mph N/A   Clear
8:53 PM 27.0 °F 15.2 °F 1.9 °F 34% 30.12 in 10.0 mi NNE 15.0 mph 21.9 mph N/A   Clear
9:53 PM 27.0 °F 13.9 °F 1.9 °F 34% 30.15 in 10.0 mi North 18.4 mph 27.6 mph N/A   Clear
10:53 PM 27.0 °F 15.2 °F 3.0 °F 36% 30.17 in 10.0 mi NNE 15.0 mph 26.5 mph N/A   Mostly Cloudy
11:53 PM 27.0 °F 16.1 °F 3.0 °F 36% 30.19 in 10.0 mi NNE 12.7 mph 20.7 mph N/A   Clear